TimeMDT,TemperatureF,Dew PointF,Humidity,Sea Level PressureIn,VisibilityMPH,Wind Direction,Wind SpeedMPH,Gust SpeedMPH,PrecipitationIn,Events,Conditions,WindDirDegrees,DateUTC
12:53 AM,60.1,60.1,100,29.94,8.0,SE,3.5,-,N/A,,Overcast,140,2013-09-10 06:53:00
1:53 AM,60.1,59.0,96,29.94,10.0,Calm,Calm,-,N/A,,Partly Cloudy,0,2013-09-10 07:53:00
2:53 AM,60.1,59.0,96,29.96,10.0,North,3.5,-,N/A,,Partly Cloudy,350,2013-09-10 08:53:00
3:53 AM,60.1,59.0,96,29.98,10.0,NW,3.5,-,N/A,,Mostly Cloudy,310,2013-09-10 09:53:00
4:53 AM,59.0,57.9,96,29.99,10.0,WNW,4.6,-,N/A,,Overcast,300,2013-09-10 10:53:00
5:53 AM,57.9,57.0,97,30.01,10.0,West,5.8,-,N/A,,Clear,280,2013-09-10 11:53:00
6:53 AM,57.9,57.0,97,30.02,10.0,WSW,3.5,-,N/A,,Clear,240,2013-09-10 12:53:00
7:53 AM,59.0,57.9,96,30.04,10.0,Calm,Calm,-,N/A,,Partly Cloudy,0,2013-09-10 13:53:00
8:53 AM,62.1,57.9,86,30.05,10.0,NW,3.5,-,N/A,,Mostly Cloudy,310,2013-09-10 14:53:00
9:53 AM,64.0,57.0,78,30.07,10.0,NW,4.6,-,0.00,,Overcast,310,2013-09-10 15:53:00
10:53 AM,66.0,57.9,75,30.07,10.0,West,4.6,-,0.00,,Scattered Clouds,280,2013-09-10 16:53:00
11:53 AM,68.0,55.9,65,30.07,10.0,NW,6.9,-,0.00,,Overcast,310,2013-09-10 17:53:00
12:53 PM,70.0,50.0,49,30.06,10.0,NNW,4.6,-,N/A,,Overcast,340,2013-09-10 18:53:00
1:53 PM,72.0,50.0,46,30.05,10.0,NW,4.6,-,N/A,,Overcast,320,2013-09-10 19:53:00
2:53 PM,73.0,48.0,41,30.04,10.0,NE,3.5,-,N/A,,Mostly Cloudy,40,2013-09-10 20:53:00
3:53 PM,73.0,46.9,39,30.04,10.0,NE,5.8,-,N/A,,Mostly Cloudy,40,2013-09-10 21:53:00
4:53 PM,73.9,48.0,40,30.03,10.0,North,3.5,-,N/A,,Overcast,360,2013-09-10 22:53:00
5:53 PM,72.0,51.1,48,30.05,10.0,NE,3.5,-,N/A,,Mostly Cloudy,40,2013-09-10 23:53:00
6:53 PM,69.1,55.0,61,30.05,10.0,SE,5.8,-,N/A,,Mostly Cloudy,130,2013-09-11 00:53:00
7:53 PM,66.0,57.9,75,30.09,10.0,Calm,Calm,-,N/A,,Mostly Cloudy,0,2013-09-11 01:53:00
8:53 PM,64.0,59.0,84,30.10,10.0,ENE,3.5,-,N/A,,Overcast,70,2013-09-11 02:53:00
9:53 PM,64.0,59.0,84,30.09,10.0,ENE,4.6,-,N/A,,Overcast,60,2013-09-11 03:53:00
10:53 PM,63.0,59.0,87,30.09,10.0,ENE,3.5,-,N/A,,Overcast,70,2013-09-11 04:53:00
11:53 PM,63.0,59.0,87,30.09,10.0,East,5.8,-,N/A,,Overcast,80,2013-09-11 05:53:00